AirNav   Duncan Aviation - Near you to keep you flying
 
 387 users online  

O38 Gundy's Airport
Owasso, Oklahoma, USA

GOING TO OWASSO?


FAA INFORMATION EFFECTIVE 23 MARCH 2023

Location

FAA Identifier: O38
Lat/Long: 36-16-00.3460N 095-47-00.9470W
36-16.005767N 095-47.015783W
36.2667628,-95.7835964
(estimated)
Elevation: 720 ft. / 219 m (estimated)
Variation: 06E (1985)
From city: 3 miles E of OWASSO, OK
Time zone: UTC -5 (UTC -6 during Standard Time)
Zip code: 74055

Airport Operations

Airport use: Open to the public
Activation date: 05/1975
Control tower: no
ARTCC: KANSAS CITY CENTER
FSS: MC ALESTER FLIGHT SERVICE STATION
NOTAMs facility: MLC (NOTAM-D service available)
Attendance: IREG
Wind indicator: yes
Segmented circle: no
Lights: SS-SR
Beacon: white-green (lighted land airport)
Operates sunset to sunrise.

Airport Communications

CTAF: 122.9
WX ASOS at TUL (7 nm SW): PHONE 918-831-6772
WX AWOS-3P at GCM (15 nm E): 119.925 (918-343-0184)
WX ASOS at RVS (17 nm SW): 126.5 (918-299-0740)
WX AWOS-3 at OWP (19 nm W): 118.325 (918-246-2635)

Nearby radio navigation aids

VOR radial/distance  VOR name  Freq  Var
TULr355/4.2TULSA VORTAC114.4008E
OKMr359/34.7OKMULGEE VOR/DME114.9008E
BVOr154/35.9BARTLESVILLE VOR/DME117.9008E

 
NDB name  Hdg/Dist  Freq  Var  ID
OILLR024/11.433803ETU - ..-

Airport Services

Fuel available: 100LL
100LL:24 HR AUTOMATED SYSTEM.
Parking: hangars and tiedowns
Airframe service: NONE
Powerplant service: NONE
Bottled oxygen: NONE
Bulk oxygen: NONE

Runway Information

Runway 17L/35R

Dimensions: 2600 x 40 ft. / 792 x 12 m
Surface: asphalt, in excellent condition
Runway edge lights: non-standard
NSTD MIRL; LGTS LCTD 35 FT FM RY EDGE; THLD LGTS MISSING.
RUNWAY 17L  RUNWAY 35R
Traffic pattern: leftleft
Markings: nonenone
Obstructions: 25 ft. bldg, 210 ft. from runway, 75 ft. left and right of centerline
+25 FT BLDGS 50 FT FM THLD 100 FT R.
none
+15 FT ROAD 20 FT FM THLD.

Runway 17R/35L

Dimensions: 1760 x 100 ft. / 536 x 30 m
Surface: turf, in fair condition
RUNWAY 17R  RUNWAY 35L
Traffic pattern: leftleft
Obstructions: 25 ft. bldg, 50 ft. from runway, 125 ft. right of centerline, 2:1 slope to clear51 ft. trees, 75 ft. left of centerline

Airport Ownership and Management from official FAA records

Ownership: Privately-owned
Owner: ROGER & MARY WIEDEN
PO BOX 693
OWASSO, OK 74055
Phone 918-272-1523
Manager: ROGER WIEDEN
7608 N. 177TH E. AVE.
OWASSO, OK 74055
Phone 918-272-1523

Airport Operational Statistics

Aircraft based on the field: 122
Single engine airplanes: 116
Multi engine airplanes: 4
Helicopters: 2
    
Aircraft operations: avg 33/day *
58% local general aviation
42% transient general aviation
* for 12-month period ending 16 June 2020

Additional Remarks

FOR CD CTC TULSA APCH AT 918-831-6714/6720.

Instrument Procedures

There are no published instrument procedures at O38.

Some nearby airports with instrument procedures:

KTUL - Tulsa International Airport (7 nm SW)
KGCM - Claremore Regional Airport (15 nm E)
KRVS - Tulsa Riverside Airport (17 nm SW)
KOWP - William R Pogue Municipal Airport (19 nm W)
H71 - Mid-America Industrial Airport (22 nm E)
 
Loc | Ops | Rwys | IFR | FBO | Links
Com | Nav | Svcs | Stats | Notes
Area around O38 (Gundy's Airport)
 
Road maps at: MapQuest Bing Google
 
Aerial photo
WARNING: Photo may not be current or correct
Aerial photo of O38 (Gundy's Airport)
Photo by Randy Wieden
Taken in October 2006

Do you have a better or more recent aerial photo of Gundy's Airport that you would like to share? If so, please send us your photo.

 
Sectional chart

 
Airport distance calculator
Flying to Gundy's Airport? Find the distance to fly.

From to O38

Sunrise and sunset
Times for 25-Mar-2023
 Local
(UTC-5)
 Zulu
(UTC)
Morning civil twilight06:5511:55
Sunrise07:2012:20
Sunset19:3800:38
Evening civil twilight20:0401:04

Current date and time
Zulu (UTC)  25-Mar-2023 07:12:11
Local (UTC-5)  25-Mar-2023 02:12:11
 
METAR
KTUL 
6nm SW 
250653Z 18003KT 7SM SCT140 06/06 A2974 RMK AO2 SLP069 T00560056
KGCM 
15nm E 
250655Z AUTO 20004KT 1 1/2SM BR BKN024 04/04 A2973 RMK AO2
KRVS 
16nm SW 
250702Z 00000KT 1/4SM FG VV006 04/03 A2974 RMK AO2 T00390033
KOWP 
19nm W 
250655Z AUTO 00000KT 2SM CLR 07/06 A2976 RMK AO2 T00650062
TAF
KTUL 
6nm SW 
250542Z 2506/2606 28003KT P6SM SCT007 TEMPO 2506/2510 3SM BR BKN007 FM251000 VRB03KT 1SM BR BKN003 FM251500 VRB03KT P6SM BKN035 FM251800 18007KT P6SM SCT050 BKN100 FM260500 35005KT P6SM SCT150
KRVS 
16nm SW 
250542Z 2506/2606 00000KT 3SM BR SCT007 TEMPO 2506/2510 1SM BR BKN003 FM251000 00000KT 1SM BR BKN003 FM251500 VRB03KT P6SM BKN035 FM251800 18006KT P6SM SCT050 BKN100 FM260500 36004KT P6SM SCT150
NOTAMs
Click for the latest NOTAMs
NOTAMs are issued by the DoD/FAA and will open in a separate window not controlled by AirNav.

 

 
 

FBO, Fuel Providers, and Aircraft Ground Support

  
 Business Name 
 
 Contact 
 
 Services / Description 
 
Fuel Prices
 
Comments
  
Gundy's Airport 918-272-1523
no information available

If you are affiliated with Gundy's Airport and would like to show here your services, contact info, web link, logo, and more, click here
100LL
SS $5.65 
 Updated 12-Sep-2022
 
   write
SS=Self service
Update Fuel Prices
 

Aviation Businesses, Services, and Facilities

  
 Business Name 
 
 Contact 
 
 Services / Description 
 
Distance
 
Comments
  
Viking Aviation, LLC 918-527-8680
[web site]
[email]
Flight training, Aircraft rental, Internet access, Restrooms

More info about Viking Aviation, LLC
on airport  
   write
 

Would you like to see your business listed on this page?

 If your business provides an interesting product or service to pilots, flight crews, aircraft, or users of the Gundy's Airport, you should consider listing it here.  To start the listing process, click on the button below
 
Add a business
 

Other Pages about Gundy's Airport

randywieden.com/gundys
 
Update a link
 
Copyright © AirNav, LLC. All rights reserved. Privacy Policy  Contact